Theta_e
306 306 306 306 306 306 306 306 306 306 307 307 307 306 305 304 303 302 302 301 302 302 302 302 302 302 302 302 303 302 305 308 307 307 309 310 310 306 303 302 302 302 301 301 302 303 303 303 304 303 304 305 305 306 306 308 314 317 323 328 328 329 329 327 327 326 325 326 328 330 334 337 340 335 330 331 330 329 329 327 326 325 325 326 328 328 329 329
306 306 306 306 306 306 306 306 305 306 306 306 306 306 305 304 303 302 301 302 302 302 302 302 301 302 302 303 302 302 306 308 307 308 308 310 307 302 302 302 302 302 302 302 303 303 304 304 303 302 305 306 305 306 307 310 313 315 323 327 326 327 328 327 327 327 324 328 329 329 337 338 338 336 332 335 331 329 333 328 326 327 326 326 326 327 327 327
306 306 305 305 305 305 305 305 305 305 305 306 305 305 305 304 303 302 301 302 301 302 301 301 301 302 303 303 303 304 307 308 308 308 306 305 304 302 303 302 302 302 302 303 304 304 304 304 302 303 306 306 308 307 306 312 314 315 319 322 326 327 327 329 327 329 329 329 328 328 337 338 336 334 333 336 332 332 335 329 329 329 327 327 325 325 326 326
305 305 305 305 305 305 305 305 305 305 305 306 305 305 305 303 302 301 302 302 301 302 301 301 301 301 303 302 304 306 306 308 309 306 304 303 303 303 303 303 302 302 303 303 303 304 304 304 302 304 305 307 312 308 305 311 314 316 316 316 324 325 326 329 327 334 335 329 329 333 339 338 334 332 331 333 333 333 331 329 332 330 327 327 324 324 325 326
305 305 305 305 305 305 305 305 305 305 305 305 304 305 304 303 302 301 301 301 301 301 301 301 300 301 303 302 305 307 307 311 308 304 304 304 303 304 303 303 302 302 303 303 303 304 304 303 303 305 305 307 312 308 307 311 308 310 312 311 315 317 321 326 325 332 335 328 330 337 340 336 333 333 331 332 336 334 329 328 329 327 326 326 325 324 325 326
305 305 305 305 305 305 304 304 305 305 305 305 304 304 304 302 302 301 301 301 301 301 301 301 300 301 302 303 306 307 310 312 306 304 305 304 304 304 304 303 302 302 303 303 303 303 304 304 304 306 305 305 308 306 307 309 305 305 308 308 309 310 315 318 319 324 327 326 329 334 335 333 334 336 333 333 335 331 329 328 325 324 324 325 325 324 325 325
304 304 305 305 305 305 304 304 305 305 305 304 304 303 303 302 301 301 301 301 301 301 301 301 300 301 302 303 305 309 315 312 304 304 305 304 304 304 304 303 302 303 303 303 303 303 304 305 305 305 304 305 307 306 307 307 305 304 307 309 308 308 311 314 317 319 321 324 330 332 332 332 335 335 332 332 331 327 328 327 324 324 324 325 325 324 325 325
304 304 305 304 305 305 304 304 304 304 304 304 303 303 302 302 301 301 301 301 301 301 301 301 300 301 302 303 306 313 316 310 304 305 304 304 304 304 304 303 302 303 303 303 303 303 304 305 305 305 304 306 306 306 307 306 306 305 307 309 307 309 311 313 316 317 320 327 332 331 331 333 333 330 330 331 327 323 324 323 323 324 324 325 325 324 324 324
303 304 304 304 305 304 304 304 304 304 304 303 302 302 302 301 301 301 301 301 301 301 301 301 300 301 303 303 307 313 312 305 304 305 304 304 304 304 304 303 303 303 303 303 303 303 304 305 306 305 304 306 306 307 307 305 307 307 307 309 308 310 311 313 315 315 321 331 332 330 332 333 330 329 329 328 323 321 322 323 323 324 324 325 324 324 324 323
303 303 304 304 305 304 304 304 304 303 303 303 302 302 301 301 301 301 301 301 301 301 301 301 300 301 303 305 310 313 308 304 305 304 304 304 304 304 303 303 303 303 303 303 303 304 304 304 305 305 304 305 306 306 306 306 308 308 308 311 311 312 313 315 316 315 321 329 330 329 332 332 329 330 331 325 321 321 323 323 324 324 326 325 323 324 323 323
303 303 304 304 304 304 304 304 304 303 302 302 302 301 301 301 301 301 301 301 301 301 301 301 300 301 303 308 313 313 306 304 305 304 304 304 304 304 303 303 303 303 303 303 303 303 304 304 304 305 304 305 306 307 308 307 307 308 310 310 312 315 316 318 319 319 322 326 327 327 329 330 328 330 331 325 320 322 324 324 324 325 326 324 324 323 323 321
303 303 303 304 304 304 304 304 304 303 302 302 302 301 300 301 301 301 301 301 301 300 301 301 301 301 304 310 315 312 306 305 304 304 304 304 304 304 304 304 304 304 303 303 304 303 304 304 304 306 306 306 307 308 308 306 305 308 309 309 314 316 315 318 320 322 324 324 325 326 326 329 329 329 327 323 321 322 324 324 325 326 325 324 324 323 322 318
303 303 304 304 304 304 304 304 303 303 302 302 302 301 300 301 300 301 301 300 300 300 301 301 301 302 307 312 312 308 307 306 304 304 305 304 304 304 304 305 304 304 304 303 304 303 304 304 304 306 307 306 307 308 306 304 304 306 307 310 315 314 314 319 321 324 326 324 325 326 327 330 330 328 324 322 322 323 324 324 325 326 325 324 324 323 320 315
303 303 303 304 304 304 304 303 303 303 302 301 301 301 300 300 301 301 301 301 300 301 301 301 303 305 311 314 309 306 307 306 305 305 305 304 304 305 305 305 305 304 304 304 304 304 303 303 303 304 305 306 307 306 305 306 308 308 308 312 315 314 316 321 323 325 325 323 324 326 327 330 330 328 323 321 322 323 324 325 325 325 325 324 323 321 317 314
302 303 303 303 304 304 303 303 303 302 301 301 301 301 300 300 301 301 301 301 300 301 301 302 306 308 312 314 307 305 306 305 305 305 305 304 304 305 305 305 305 304 304 304 304 304 304 304 304 305 307 306 305 306 306 307 312 313 310 312 314 314 316 319 321 325 325 322 321 323 326 329 329 326 323 321 322 323 325 325 325 325 324 324 321 318 315 314
302 302 303 303 303 304 303 303 302 301 300 300 301 301 300 300 300 300 301 301 301 302 301 304 309 309 311 313 307 305 306 305 305 305 305 304 304 304 305 305 305 304 305 304 304 304 304 304 305 307 307 306 306 306 306 306 310 311 309 311 313 313 314 316 319 323 324 322 320 322 326 328 327 326 323 322 322 323 324 324 324 324 324 322 319 316 315 314
302 302 303 303 304 304 302 301 301 300 300 300 300 300 300 300 300 300 301 300 301 303 304 306 308 307 309 308 305 305 304 303 305 305 305 305 305 305 305 305 304 305 305 305 304 304 304 304 305 306 305 306 307 306 306 306 307 308 308 310 311 312 314 316 318 321 322 322 322 323 325 326 326 325 324 323 322 323 324 325 324 323 323 321 318 316 314 312
302 302 303 303 303 302 300 299 300 300 300 300 300 301 300 300 300 301 301 302 303 305 306 306 306 307 309 306 304 304 303 304 305 305 305 306 306 305 305 305 305 305 306 306 305 305 305 305 305 305 305 305 306 306 306 305 305 306 307 309 309 311 314 314 316 319 321 322 322 324 325 325 325 325 324 323 322 324 324 324 323 323 321 319 317 316 314 312
302 302 301 303 302 301 299 300 300 300 300 301 300 300 300 301 303 303 302 302 304 305 306 305 305 307 308 306 303 303 304 305 305 305 306 306 306 306 305 305 306 306 308 308 307 306 305 305 305 305 306 305 305 306 306 306 306 307 308 309 310 311 312 313 314 317 321 322 322 323 324 324 325 324 324 323 323 323 323 322 323 322 320 319 317 316 314 312
302 301 300 302 302 300 299 300 300 300 300 300 301 302 303 304 305 307 307 303 302 302 304 305 305 306 306 305 303 303 305 305 305 306 306 306 306 306 305 306 307 307 308 310 309 307 305 306 306 306 306 305 305 305 305 306 307 307 309 310 310 311 312 312 313 316 320 321 321 322 324 324 324 324 323 323 323 323 323 323 323 321 319 318 317 316 314 312
302 300 299 301 301 299 300 300 300 300 300 301 302 302 304 303 302 305 305 303 300 299 302 305 303 304 303 302 303 304 305 307 306 306 306 307 307 307 306 307 308 309 309 310 308 305 305 307 307 305 306 305 305 305 304 305 305 305 307 308 309 310 311 312 314 317 319 320 321 322 323 323 324 325 323 322 323 323 323 323 322 321 319 318 317 316 314 312
302 300 298 300 300 299 300 300 300 301 303 304 302 300 301 301 299 299 299 301 303 300 301 303 301 304 304 302 304 304 305 309 310 308 307 307 307 308 308 308 309 310 308 308 307 306 306 307 307 305 305 306 307 306 305 305 305 306 307 307 308 309 311 313 314 316 318 319 322 323 322 321 322 323 323 323 323 323 322 322 321 320 319 318 317 316 314 311
302 299 298 300 299 299 300 299 301 303 305 304 301 299 298 299 299 299 298 301 306 305 304 305 304 307 308 304 305 304 305 308 311 313 309 306 307 309 310 310 310 310 308 308 308 308 308 307 307 307 308 308 309 308 306 306 306 307 308 308 308 309 311 313 315 316 317 318 320 322 323 322 322 321 322 323 323 323 322 321 319 319 318 318 316 315 313 311
301 298 299 299 298 299 300 301 303 302 302 300 300 299 298 299 298 300 302 302 306 307 305 305 304 306 308 305 303 305 307 307 309 312 308 306 308 308 309 311 310 311 310 309 309 308 308 309 309 309 309 309 309 309 308 307 308 309 309 310 310 310 311 313 316 317 317 318 319 321 324 324 322 321 322 322 323 323 321 320 320 319 318 316 316 315 312 310
300 299 299 298 298 300 300 301 302 301 302 301 299 299 298 299 298 299 303 306 309 312 306 302 303 305 306 304 303 305 306 308 310 309 306 306 309 308 309 310 309 312 312 311 311 310 309 309 309 309 308 308 309 309 308 308 310 310 310 310 310 310 311 313 316 318 320 320 319 321 324 324 322 322 322 322 323 323 321 321 321 319 318 316 316 314 312 310
300 299 298 298 299 300 301 304 302 301 305 302 298 299 298 299 300 299 304 312 314 313 305 303 305 306 305 304 306 305 306 311 311 307 305 307 307 307 310 311 310 312 313 311 311 311 310 309 309 309 308 308 309 310 309 309 311 312 312 311 310 311 312 314 316 318 322 322 318 320 324 324 323 323 321 322 324 323 322 321 320 320 318 316 316 314 312 310
300 300 298 298 299 301 304 306 301 300 306 303 298 299 298 299 299 298 306 315 312 305 303 304 306 306 305 305 306 307 309 312 310 306 307 307 306 306 309 312 312 313 312 311 311 312 312 311 310 309 308 309 310 310 310 310 312 314 314 313 311 311 313 314 315 316 319 319 317 319 323 325 324 323 322 322 324 324 322 322 321 320 318 317 316 314 312 310
301 299 297 298 299 302 305 303 300 301 304 302 298 298 299 299 298 302 311 312 303 301 303 306 305 304 305 304 305 309 310 309 309 309 306 306 307 307 310 312 312 312 311 310 313 313 312 311 310 309 308 310 311 310 309 310 312 314 315 315 313 312 313 313 314 315 317 320 320 320 322 324 323 322 323 322 324 325 323 322 321 320 318 317 316 314 312 311
301 299 297 299 299 300 302 302 303 303 301 299 298 298 299 297 298 307 315 307 300 301 303 304 304 305 307 307 308 311 310 308 311 310 306 306 307 306 310 312 311 312 311 310 312 312 311 309 307 306 307 309 309 308 307 309 311 314 315 315 314 313 313 313 315 317 318 321 323 322 321 324 323 322 323 324 324 325 323 322 321 320 319 317 317 315 312 311
300 298 297 300 300 299 300 301 303 302 300 299 298 298 298 299 307 315 311 303 300 301 302 303 302 305 308 309 312 312 307 307 312 311 309 310 309 308 308 309 309 310 311 311 312 311 311 307 304 305 307 306 306 306 307 307 309 313 316 316 316 315 313 314 316 319 320 322 323 322 321 324 325 322 322 324 324 323 322 321 321 320 319 318 317 315 313 311
300 297 297 301 303 300 300 302 301 300 300 299 297 298 300 305 316 318 303 298 302 303 304 304 304 306 307 305 309 312 307 309 312 310 310 312 312 311 309 308 309 310 312 313 313 312 312 311 308 307 306 305 307 311 310 308 309 314 318 318 318 318 317 318 319 320 322 322 322 322 322 323 326 324 320 322 323 322 321 321 321 321 319 318 317 316 313 312
300 297 297 300 302 301 303 304 300 298 299 298 297 302 307 310 313 311 303 300 303 305 304 303 305 307 306 302 307 311 308 310 313 309 309 311 310 310 308 307 308 311 315 315 313 314 316 316 312 310 308 307 311 315 313 312 313 316 319 320 320 321 321 321 322 321 322 321 319 320 322 323 325 322 319 320 322 322 321 321 321 320 320 318 318 317 314 313
300 298 297 299 300 300 303 302 299 299 298 297 301 308 315 316 307 305 306 304 301 302 302 303 306 306 305 305 308 308 306 309 311 308 307 308 309 309 307 306 306 310 314 314 312 315 318 317 314 313 312 310 312 315 315 314 314 316 317 319 321 322 323 324 323 321 322 320 317 318 321 325 325 321 318 318 320 321 322 322 321 320 320 319 318 318 316 314
301 298 297 298 299 299 300 299 298 299 297 300 308 311 310 310 306 301 305 306 302 303 303 302 305 307 306 307 306 306 307 310 309 307 310 310 311 311 308 307 307 307 310 312 313 315 317 318 317 316 314 312 312 313 313 313 313 313 312 314 318 319 321 325 324 323 322 320 319 319 321 325 326 321 317 316 317 320 322 322 322 320 320 320 319 318 317 315
301 298 297 299 298 298 298 297 298 298 299 306 314 313 306 306 306 303 308 308 303 304 304 302 304 307 310 310 308 304 304 308 308 307 310 311 310 310 308 308 307 305 308 312 313 312 315 319 320 317 313 312 313 311 309 312 314 313 310 312 316 315 315 320 322 321 321 321 321 321 321 320 321 319 316 316 319 320 321 322 321 321 320 320 320 319 318 317
302 299 299 299 297 297 297 296 299 298 301 310 315 313 314 310 303 304 307 305 303 303 304 306 307 308 310 311 312 308 302 305 308 308 310 309 307 307 307 307 307 305 306 310 312 312 313 319 320 317 314 313 312 310 308 310 313 313 311 313 314 310 311 319 323 320 321 324 321 320 320 318 319 321 316 316 322 321 320 321 320 320 320 320 320 319 319 318
304 302 301 300 297 297 297 297 298 297 303 313 313 311 312 304 299 304 305 302 301 302 304 307 306 306 307 308 312 311 304 305 307 307 311 311 307 306 307 307 305 303 303 306 310 311 310 315 317 316 315 313 308 308 310 310 309 311 311 311 311 311 312 316 322 323 323 324 320 317 317 316 319 322 316 316 323 323 321 321 321 320 320 320 320 319 319 319
304 303 301 301 298 296 297 298 297 300 308 313 313 311 306 299 298 301 302 301 300 302 306 307 303 303 304 305 310 309 305 307 308 307 310 311 308 306 305 306 304 303 303 303 307 310 309 315 320 316 313 312 309 310 311 310 307 308 308 308 311 315 315 316 321 323 323 323 319 316 316 314 315 315 312 313 318 321 322 321 322 322 321 320 320 319 320 319
303 304 304 302 299 296 297 297 298 305 311 310 314 313 303 299 300 299 300 300 299 303 306 304 301 303 303 303 307 307 305 307 307 307 308 308 308 307 304 303 303 303 303 303 307 309 308 314 322 317 311 312 313 312 309 306 305 307 307 307 309 312 312 314 316 317 320 322 320 318 318 317 314 311 309 309 310 316 323 323 322 322 321 320 320 319 320 319
302 306 306 301 298 297 296 298 303 310 309 305 309 308 300 300 301 299 299 300 299 301 303 302 301 303 305 303 303 304 305 306 306 306 307 306 308 310 305 302 302 303 302 302 305 307 307 311 317 318 315 314 314 309 304 304 304 306 307 306 306 307 309 312 311 310 315 319 319 320 321 317 313 309 307 306 308 313 320 322 322 322 321 321 321 320 320 320
301 307 306 298 296 297 297 301 306 308 308 304 302 302 299 301 301 300 299 299 299 299 299 302 303 302 304 304 302 303 304 307 307 306 308 308 307 308 305 302 302 303 303 305 305 305 308 309 312 317 317 315 313 305 300 302 302 302 306 305 304 307 310 314 314 310 311 314 316 319 320 316 312 308 306 307 310 313 318 321 321 322 321 321 321 320 320 320
303 308 303 297 296 297 301 306 304 304 309 305 299 299 300 301 301 300 298 297 299 298 297 300 302 302 304 304 303 303 303 307 308 306 307 308 306 308 306 302 302 302 303 307 306 303 305 306 309 316 316 311 307 302 299 300 299 300 304 304 305 307 309 313 315 312 311 311 311 314 318 316 312 307 307 309 309 310 316 319 319 320 320 320 319 318 318 318
308 306 298 296 297 299 304 307 303 305 308 300 296 297 298 300 300 298 297 297 298 299 298 299 300 300 302 302 302 302 302 305 307 306 307 308 308 311 308 303 303 303 302 305 305 303 303 305 308 316 320 314 307 303 300 299 300 305 306 305 306 306 305 307 309 310 312 311 310 315 318 317 312 306 305 308 308 311 316 318 318 319 319 318 318 317 317 316
307 303 298 297 296 298 306 309 307 309 306 298 297 298 296 297 299 298 299 300 300 300 301 301 300 299 300 300 301 303 302 303 304 305 306 307 309 311 308 305 303 302 303 303 302 303 303 305 309 315 320 318 314 312 309 305 306 308 306 306 306 305 305 306 307 312 313 308 308 316 318 315 312 307 306 306 308 312 314 314 315 318 318 317 317 316 315 315
303 301 301 300 298 299 305 309 311 313 307 300 301 300 298 298 298 299 300 300 300 300 300 300 299 299 299 299 301 303 302 302 304 305 304 306 310 310 307 306 303 302 305 303 300 303 303 304 308 312 314 311 309 310 309 307 307 306 306 306 305 304 305 307 311 315 312 307 308 313 312 309 307 306 306 306 308 310 309 308 311 313 314 314 315 314 314 314
302 304 302 300 300 301 302 303 306 311 309 304 302 301 300 301 299 298 298 299 299 298 298 298 297 298 299 300 303 305 304 302 302 304 306 308 313 311 305 305 306 305 306 304 302 303 305 305 305 309 313 313 311 309 304 303 306 307 307 306 303 302 303 307 314 314 309 308 310 309 308 306 305 304 305 305 306 307 307 307 309 310 311 312 312 312 312 313
301 306 305 303 302 301 302 301 302 306 307 304 301 300 301 302 301 297 297 298 298 297 297 297 297 299 300 302 305 307 306 304 302 303 307 308 311 312 306 303 304 305 305 303 301 302 307 308 303 304 310 310 307 305 301 300 303 304 304 304 303 302 303 310 315 309 309 313 310 307 309 308 305 304 304 305 305 306 307 307 307 309 310 311 311 311 312 312
299 303 305 302 302 303 304 305 304 304 303 302 301 300 301 303 303 301 299 297 296 297 297 297 299 301 302 304 306 307 307 306 304 305 308 306 308 311 309 305 303 303 304 303 300 302 307 308 302 302 309 308 303 301 299 299 300 300 301 302 302 303 305 311 311 305 310 317 312 309 311 307 304 306 307 308 307 308 308 306 305 307 309 311 312 313 314 314
298 300 300 299 302 306 306 305 304 303 303 304 303 302 302 304 305 303 300 297 298 298 297 299 302 303 302 303 305 307 308 306 303 306 308 307 307 308 308 307 305 303 305 304 301 301 305 309 304 302 308 310 304 299 298 298 299 303 303 300 300 303 303 306 307 304 307 313 311 311 312 307 306 309 310 310 308 308 307 304 304 307 310 313 315 315 315 315
299 301 301 300 303 303 302 302 303 303 303 303 304 303 302 305 306 303 299 300 303 300 296 299 305 304 303 302 302 305 310 308 304 305 306 306 308 307 305 305 304 303 306 306 303 301 302 305 302 301 308 309 304 300 300 298 298 305 308 303 302 304 302 303 305 304 306 310 309 310 311 308 306 309 311 310 308 306 304 303 304 305 308 312 314 315 316 315
301 300 300 302 303 302 302 303 303 304 303 302 304 305 303 305 306 304 301 301 304 303 300 302 307 306 301 300 301 304 308 309 307 307 306 305 305 305 303 301 301 302 305 305 304 305 305 304 302 303 307 306 303 302 302 297 296 305 309 304 303 305 303 303 304 303 306 311 310 310 311 307 305 307 309 309 309 307 305 306 307 305 306 311 313 314 315 315
302 300 299 302 304 304 304 303 302 304 307 306 305 305 304 305 305 303 301 301 301 303 302 303 306 306 303 304 305 303 304 306 305 304 304 302 301 301 302 301 299 300 303 303 303 305 304 304 305 304 305 307 304 300 300 302 305 311 308 302 301 302 301 301 301 302 305 308 310 312 310 308 307 307 306 307 309 308 306 307 307 304 305 309 310 311 312 312
Wind_Speed
8 9 9 9 9 8 8 7 6 6 6 5 4 4 4 4 4 4 5 5 6 8 9 11 12 13 14 15 16 18 17 10 9 12 10 7 4 7 10 12 12 13 13 11 11 11 12 14 15 19 17 8 3 3 3 1 1 1 1 5 8 8 6 5 7 5 3 3 4 6 6 9 5 2 2 5 8 8 8 6 4 5 6 9 21 31 34 28
8 9 9 9 9 8 8 7 6 5 5 4 3 3 3 3 3 4 4 5 6 8 9 11 12 13 14 15 16 16 13 8 11 11 8 5 4 9 11 12 12 13 15 13 12 12 10 9 14 15 9 4 3 3 3 2 1 2 2 5 7 5 3 3 5 6 5 5 5 6 6 9 9 9 6 5 4 7 9 5 4 8 8 11 22 31 30 29
8 9 9 9 8 8 8 8 7 5 4 4 3 2 3 2 2 3 3 4 6 8 9 11 12 14 15 15 16 15 7 4 6 5 4 4 6 10 12 13 12 12 13 12 10 10 9 9 12 9 3 3 3 2 3 3 2 2 3 6 5 3 4 4 3 4 6 5 7 9 5 6 8 8 6 9 10 10 10 8 8 8 9 10 15 26 28 27
8 8 8 9 8 8 8 8 7 5 4 4 2 1 1 0 1 1 2 4 6 7 9 11 13 14 15 16 16 11 4 3 2 2 3 6 9 11 12 13 13 11 10 10 9 9 10 11 10 4 2 3 3 3 2 3 2 2 3 4 4 4 5 6 5 4 3 1 3 5 3 4 5 3 3 13 13 7 7 9 13 15 14 11 11 21 26 25
7 8 8 9 8 8 8 7 7 6 4 3 1 1 1 0 0 1 2 4 5 7 9 11 13 15 15 16 14 7 2 4 2 3 4 8 10 11 13 14 12 9 9 9 9 9 10 10 8 4 2 2 3 4 2 4 1 3 3 3 5 5 4 8 7 4 5 5 4 2 4 4 4 2 3 13 13 7 9 11 15 20 20 18 17 23 25 23
7 8 8 8 8 8 8 7 7 6 5 3 1 2 2 2 1 1 1 3 5 7 8 11 14 14 14 15 11 6 3 2 3 2 4 8 10 12 15 16 11 8 9 10 11 9 8 7 6 3 2 3 3 3 5 4 1 3 4 4 7 7 5 8 10 5 5 7 5 2 3 1 5 3 2 8 6 4 6 8 11 18 25 30 28 25 24 23
7 8 8 8 8 8 8 8 7 6 5 2 3 3 3 3 2 1 1 3 5 6 8 10 14 14 14 14 10 6 5 1 3 2 6 9 10 12 15 14 8 7 10 11 10 6 4 5 4 1 1 3 3 3 5 5 2 2 4 5 7 9 8 7 10 9 4 6 5 1 3 2 4 3 2 4 4 6 3 9 12 16 24 28 26 22 23 26
7 8 8 8 9 9 8 8 8 6 4 2 4 4 4 3 2 1 1 3 5 6 8 10 13 14 13 13 8 4 3 1 2 4 8 10 9 9 11 8 5 7 9 9 7 3 3 4 2 0 1 2 2 3 5 5 4 2 4 6 5 7 8 8 10 10 5 5 4 3 2 2 2 1 5 4 3 4 3 14 15 17 20 21 19 18 19 22
7 8 8 9 9 9 9 9 8 6 3 3 4 5 5 4 3 1 1 3 5 6 8 10 12 12 13 11 7 3 2 2 3 5 8 8 7 7 9 7 4 6 7 5 5 2 1 1 2 1 1 3 2 4 4 3 3 2 3 5 6 6 8 9 10 9 5 3 4 4 5 3 2 2 2 3 1 1 5 14 16 16 17 16 15 16 18 19
7 8 8 9 9 9 9 10 10 6 3 3 5 6 6 5 3 1 1 3 5 6 8 9 11 12 12 9 6 3 2 2 3 5 7 7 7 7 8 7 6 6 4 3 4 3 0 0 3 3 3 3 3 4 2 1 3 4 5 6 7 8 7 7 9 9 4 3 4 5 7 4 1 1 1 1 3 6 6 9 14 16 15 15 14 14 19 20
8 8 8 9 9 9 10 10 10 7 4 4 5 6 7 5 3 2 2 3 5 6 7 8 10 11 10 7 5 1 2 2 3 5 6 6 7 8 8 7 7 6 5 4 5 6 3 2 4 3 2 1 2 4 4 2 3 6 6 7 8 7 6 5 8 8 3 3 2 2 3 2 2 1 3 4 6 10 9 6 10 14 14 14 14 13 15 17
7 8 8 9 9 9 10 10 10 7 5 5 6 7 7 5 3 2 3 4 5 6 7 8 9 10 8 4 3 3 3 3 5 6 6 7 8 8 7 7 7 7 6 7 6 7 5 4 3 1 2 1 3 3 4 2 4 6 4 4 7 6 6 6 6 5 3 3 2 5 2 4 6 3 4 7 7 9 13 10 9 11 12 12 13 11 11 14
7 8 8 9 9 9 10 10 9 8 5 5 7 8 7 5 4 3 4 5 6 6 7 8 10 8 6 2 2 4 5 5 7 6 6 8 9 8 7 6 7 7 7 9 7 5 5 5 0 1 2 1 2 3 4 5 3 5 3 1 4 6 6 6 5 4 4 3 5 6 4 7 8 5 7 8 8 10 12 12 9 9 9 9 10 8 8 13
7 8 8 9 9 10 10 10 10 8 6 5 7 8 7 5 4 5 5 7 7 7 8 8 9 6 4 2 5 4 6 7 8 7 7 8 8 9 8 7 8 6 5 8 7 3 4 5 2 1 1 2 2 4 6 5 2 3 4 1 1 3 5 4 4 5 4 3 6 6 6 6 5 7 10 8 8 10 12 12 10 9 9 8 9 7 6 11
8 8 9 9 9 10 10 10 10 8 5 4 7 7 6 5 5 6 6 8 8 7 8 7 6 4 3 4 5 3 6 7 8 9 9 8 8 9 8 8 9 3 3 6 6 5 4 3 2 2 2 1 1 3 4 4 2 1 2 2 1 3 3 6 3 6 5 1 5 8 6 4 3 7 11 10 9 10 11 12 10 10 9 9 8 6 6 8
8 8 9 9 10 10 11 10 9 6 3 3 5 5 5 5 6 7 8 9 8 7 7 4 4 4 2 3 4 4 5 7 10 11 10 9 8 9 8 8 7 1 1 3 7 7 5 2 1 2 2 1 2 2 2 3 3 1 2 3 3 3 3 5 5 5 7 2 5 10 5 1 3 6 10 11 12 11 10 12 12 10 10 9 7 6 6 7
9 9 9 9 10 10 10 9 7 4 1 2 4 4 5 5 7 8 9 10 8 5 4 1 5 4 0 3 3 4 6 8 12 13 13 9 8 8 7 4 3 3 4 2 4 5 2 1 1 1 0 0 2 3 1 3 4 2 1 3 3 3 3 3 4 4 5 5 7 11 7 2 2 6 9 9 11 12 10 11 11 10 9 8 7 6 7 7
9 9 9 9 10 10 9 7 5 4 2 1 2 3 4 5 9 10 9 9 6 2 0 1 3 2 2 5 6 8 11 13 15 15 12 7 6 7 5 2 1 4 4 4 0 2 0 1 0 1 1 1 2 3 4 5 5 4 3 2 3 3 3 4 5 3 6 7 7 10 9 5 3 5 9 8 9 11 11 10 9 10 9 9 8 7 8 8
9 11 9 9 10 8 6 5 4 3 2 2 1 2 3 5 7 7 5 4 3 0 1 1 1 1 3 7 9 11 14 16 14 11 6 4 4 5 4 2 1 2 2 2 1 2 1 1 1 1 2 4 5 6 9 7 5 6 5 4 4 3 4 5 6 4 6 7 8 11 10 7 5 6 8 9 8 9 10 9 8 8 8 9 9 7 7 8
12 14 10 9 9 6 4 3 3 3 3 3 2 1 1 2 3 3 3 3 4 2 2 4 3 2 5 6 9 12 14 11 6 4 5 4 3 3 2 1 4 3 2 2 2 1 3 2 3 5 7 8 9 10 10 7 4 3 2 3 4 4 5 5 6 6 6 7 9 12 10 9 8 8 10 9 6 6 9 10 9 8 7 7 9 9 8 8
14 15 12 9 7 3 3 3 3 3 4 4 3 3 2 2 2 2 4 4 5 3 3 5 4 5 8 9 10 9 6 4 4 4 6 5 2 0 1 1 3 2 3 3 2 1 3 3 8 10 10 10 9 9 9 8 7 6 4 4 5 6 6 6 6 5 6 6 8 12 10 8 10 10 10 9 8 8 10 11 11 12 10 8 9 9 9 8
16 15 11 7 5 2 3 3 4 4 5 5 6 6 3 3 3 1 1 2 6 3 3 5 3 6 10 9 7 2 3 3 7 6 6 4 0 0 1 1 1 4 3 2 1 1 2 6 12 11 8 7 6 6 7 8 8 7 6 5 6 6 4 5 6 5 6 5 6 12 10 6 9 9 8 11 11 10 10 10 10 12 11 9 10 10 10 11
16 13 9 6 3 2 4 5 4 4 5 5 7 8 5 3 4 1 1 0 4 4 1 2 2 4 7 5 2 2 1 2 4 6 5 5 1 2 2 2 4 5 2 3 3 3 3 7 9 7 5 6 6 5 6 6 6 6 6 6 6 5 3 5 5 6 9 6 5 10 10 4 5 5 5 8 7 6 8 8 7 8 8 8 10 10 9 11
15 11 7 4 2 3 5 6 4 5 5 5 7 7 5 4 3 1 1 1 3 5 2 2 3 3 4 3 2 3 1 3 3 5 5 7 1 1 3 4 4 4 3 5 6 6 9 7 4 4 5 7 8 6 6 5 5 7 8 8 7 7 9 7 3 4 9 8 6 7 6 2 5 5 4 3 4 5 7 8 7 7 5 5 6 6 7 9
14 9 5 2 2 4 6 6 4 5 3 4 7 6 5 3 1 2 0 3 3 5 3 2 2 2 3 2 3 3 1 3 6 6 6 7 3 1 2 3 3 3 5 5 5 6 10 6 3 2 7 9 10 8 8 7 5 7 9 11 11 10 11 7 2 3 6 6 7 9 7 3 5 8 7 3 4 6 7 8 9 8 7 8 7 6 7 8
12 7 4 1 3 5 6 4 4 4 1 2 6 5 4 2 1 2 1 5 3 5 4 1 1 1 3 1 3 2 2 3 7 6 5 6 3 2 2 2 1 4 4 3 4 3 5 1 3 3 7 8 9 8 8 9 6 6 6 11 14 10 8 6 4 4 5 3 4 7 7 4 4 6 8 6 5 7 8 8 9 8 7 9 9 8 9 10
9 6 4 0 4 5 3 3 5 4 1 2 5 4 2 1 2 2 2 6 3 3 2 2 0 0 3 2 1 2 2 6 5 2 3 4 2 2 2 3 2 3 1 1 3 2 2 2 2 3 4 5 6 5 5 10 7 5 3 8 12 11 9 7 5 4 4 2 3 3 4 5 3 5 7 8 7 7 8 8 8 9 9 10 10 9 11 11
7 5 2 2 4 4 4 5 6 3 2 4 5 3 2 2 3 1 5 4 2 1 0 3 2 1 4 4 1 1 3 4 3 3 1 3 2 2 2 5 3 5 3 1 3 1 1 3 4 2 3 3 3 3 4 8 6 4 3 6 10 12 9 5 4 5 4 4 4 3 3 4 2 3 6 8 9 8 9 10 10 9 10 11 10 11 11 11
6 4 1 3 5 4 5 6 5 4 4 6 5 4 4 2 2 3 6 2 2 1 1 1 2 2 5 6 3 1 3 1 0 4 2 2 3 1 3 4 3 6 5 4 6 4 1 2 3 1 1 3 3 4 4 6 4 4 4 7 8 8 6 3 4 5 3 3 5 5 4 4 2 2 5 8 9 9 9 9 11 10 11 11 10 11 11 10
6 3 1 4 5 4 5 5 5 4 5 6 5 4 2 1 3 6 4 1 1 1 1 1 2 3 6 8 5 4 3 2 2 4 3 0 1 1 2 1 1 4 4 3 6 5 2 1 2 0 3 3 5 5 6 9 9 6 2 7 8 6 4 2 2 3 4 1 3 5 3 4 2 3 6 7 6 10 11 9 10 11 11 12 11 11 11 11
5 2 2 4 5 4 3 3 4 6 5 5 5 3 3 3 4 6 1 3 1 2 2 2 3 4 6 5 4 5 4 4 4 4 4 3 4 4 3 4 3 2 2 2 3 4 4 1 0 3 4 4 5 2 3 6 7 5 1 4 5 4 2 1 2 2 3 1 3 4 4 4 2 3 7 7 3 8 13 11 12 13 12 12 11 11 11 11
4 1 1 3 4 4 2 2 5 6 4 5 4 3 4 3 3 2 2 3 2 3 2 2 3 4 4 2 2 5 4 4 4 3 2 3 4 4 3 3 3 3 3 3 3 3 4 2 3 2 3 3 2 2 2 2 3 2 1 2 2 2 1 1 2 1 2 1 2 3 5 2 2 2 4 8 6 7 11 10 12 14 12 12 11 11 11 10
3 0 1 2 4 4 2 3 6 5 4 5 3 4 6 4 1 2 2 2 1 3 1 1 3 3 4 4 3 4 3 3 3 3 2 2 4 3 2 1 2 1 1 3 4 4 3 3 3 2 1 2 1 2 2 2 3 3 1 0 1 1 2 2 2 1 1 2 2 1 2 1 3 1 1 5 6 6 8 9 10 12 12 12 11 10 10 11
3 1 3 3 4 4 3 4 5 5 4 3 4 4 4 1 2 2 2 3 2 3 1 0 4 4 2 2 3 3 2 3 3 4 3 3 4 4 4 3 3 1 1 1 2 3 3 3 3 3 1 1 2 2 1 1 2 2 1 0 1 1 1 2 2 1 1 2 2 1 1 2 1 1 3 5 6 5 6 8 9 10 10 9 10 10 10 11
1 2 3 3 4 4 5 5 5 4 3 2 5 4 2 2 3 2 3 4 1 3 3 1 3 4 4 3 3 2 1 2 4 4 3 3 2 3 4 4 3 2 1 1 2 2 2 3 4 2 1 1 1 0 2 0 1 1 1 1 0 1 1 1 2 2 3 3 2 0 1 1 1 2 4 5 2 2 5 8 10 10 10 9 10 11 11 10
1 2 2 3 4 4 5 6 4 2 2 3 6 2 3 4 3 3 3 2 1 1 2 4 3 3 4 4 4 4 2 2 3 4 3 2 1 3 2 3 2 2 1 0 2 2 2 4 5 3 3 1 1 1 2 1 0 1 0 1 1 2 2 1 1 1 3 3 1 0 0 1 2 1 5 6 2 6 6 9 11 12 12 12 10 10 10 10
1 1 1 2 3 4 5 5 3 1 2 5 4 2 4 3 2 3 2 1 1 2 4 3 2 1 2 3 4 5 3 2 3 3 3 3 1 3 3 4 2 1 1 1 1 2 1 4 5 2 2 3 2 1 1 2 2 0 0 1 1 2 2 1 1 1 2 2 0 0 0 2 1 1 4 7 3 8 8 10 11 11 13 13 11 10 11 11
1 0 1 1 3 4 4 3 2 1 3 5 1 2 2 2 2 2 2 2 1 1 5 1 2 0 0 1 4 5 3 3 3 3 2 2 2 2 2 4 3 1 1 0 0 2 1 2 5 2 1 3 2 0 2 1 2 1 1 1 0 1 1 1 1 2 2 2 1 1 1 1 1 1 4 6 2 4 9 10 10 11 12 12 11 11 11 10
1 1 1 2 3 3 4 3 2 3 4 2 2 2 1 2 1 1 3 2 2 1 3 2 2 1 0 2 2 4 3 2 2 3 1 1 3 1 2 1 3 1 0 2 2 2 1 1 4 4 2 2 3 3 3 4 2 2 2 2 1 1 1 0 0 1 2 3 2 1 2 1 2 2 4 5 6 3 7 10 9 10 11 10 10 10 10 10
1 2 1 2 3 4 4 3 3 4 2 2 4 2 0 2 2 2 3 2 1 1 1 3 2 1 2 2 2 3 2 1 1 1 0 1 3 3 1 1 3 4 2 2 2 2 2 1 3 5 3 2 2 2 1 2 3 3 3 3 3 2 1 0 1 1 2 3 2 2 1 2 2 2 4 6 7 6 4 7 7 8 9 8 8 8 9 10
1 2 1 1 3 4 4 4 3 3 2 2 2 1 1 1 1 1 2 2 1 0 1 4 3 2 2 1 2 2 1 2 1 0 2 2 2 3 2 3 1 4 3 2 1 2 1 1 1 4 3 2 2 1 1 1 1 1 1 2 2 2 1 1 1 2 1 2 2 3 2 3 3 2 4 5 5 5 3 3 4 6 7 6 6 7 8 8
2 2 1 1 3 4 4 3 1 2 3 1 1 1 1 1 1 0 1 0 1 1 1 2 2 2 2 2 2 1 1 2 1 0 2 3 2 3 3 2 1 1 0 1 3 2 1 0 1 3 2 1 3 0 2 0 1 2 1 0 1 1 1 1 2 1 2 2 0 1 2 3 3 1 3 4 4 5 2 3 4 4 5 5 5 5 5 5
2 3 1 2 3 3 4 2 2 2 1 2 2 1 1 1 1 1 1 1 1 1 1 1 2 2 1 1 0 1 2 2 2 2 2 3 4 6 4 1 2 1 1 2 3 1 1 1 2 4 4 3 3 1 2 1 2 0 2 1 1 1 1 0 1 2 2 3 2 1 2 2 3 2 2 3 4 3 1 3 4 3 3 4 5 5 5 5
2 3 1 2 2 2 3 2 2 1 2 2 2 1 2 1 2 2 2 2 1 2 2 1 2 1 1 2 2 2 3 1 2 3 2 2 4 4 2 1 2 1 0 1 1 2 2 1 2 2 4 5 5 5 3 2 2 1 2 2 2 3 2 1 1 2 3 3 1 2 1 3 4 3 3 3 4 1 2 1 1 2 3 4 4 4 4 4
2 2 1 1 1 2 2 4 4 3 2 1 1 1 1 1 2 3 3 2 2 2 2 1 2 1 1 1 1 2 2 2 3 3 2 2 4 4 1 1 1 1 2 2 1 1 1 1 1 3 3 2 2 3 3 3 3 2 3 4 3 3 2 1 1 3 2 2 2 2 1 3 3 4 4 4 3 2 2 2 2 1 1 2 2 2 2 3
2 2 1 2 2 2 1 1 4 4 4 3 1 2 3 1 2 1 1 2 2 2 0 0 2 2 1 1 1 3 3 2 1 2 2 3 4 3 1 2 3 3 3 2 1 3 3 1 2 4 4 3 3 4 3 3 3 4 6 7 5 4 2 1 2 3 2 1 3 0 2 1 2 3 2 2 2 1 2 3 2 3 1 1 1 1 1 2
2 2 3 2 1 0 1 2 3 3 3 4 2 2 4 3 2 1 0 1 1 1 1 1 2 3 2 2 1 2 3 1 1 2 3 4 4 5 4 2 2 3 4 1 2 3 3 2 2 2 5 5 4 4 3 2 1 3 6 8 8 8 6 3 4 3 3 4 2 2 3 3 2 2 2 3 3 3 4 3 3 4 2 1 1 1 1 2
1 1 2 2 1 2 2 3 5 5 3 4 2 2 4 3 2 2 2 0 1 0 1 1 1 5 6 4 3 1 3 3 2 3 3 2 3 5 5 2 1 3 3 2 0 2 3 1 2 1 4 6 4 3 2 1 1 3 4 6 7 8 7 4 4 1 3 4 3 4 4 4 3 4 3 4 4 4 5 4 3 1 1 2 2 2 3 4
1 1 1 0 1 3 3 2 6 7 5 3 2 2 5 5 5 4 2 3 1 3 2 2 5 6 6 4 3 2 2 1 2 4 2 2 3 3 4 3 2 3 4 3 3 1 3 1 1 2 5 7 3 1 1 1 2 4 4 5 4 4 3 1 2 1 2 4 3 3 5 2 3 4 4 5 4 4 3 3 1 2 2 3 4 4 5 5
2 1 1 2 2 2 1 2 5 6 4 2 2 3 4 6 7 4 2 4 3 2 2 4 7 5 5 4 4 3 6 6 3 4 3 1 3 1 1 2 2 4 6 4 2 2 2 2 1 3 3 6 3 3 3 4 3 4 6 5 3 3 3 2 2 1 2 4 3 4 6 2 3 3 5 4 3 0 1 1 2 2 3 4 5 5 6 6
2 0 1 3 1 2 2 2 4 5 2 3 4 4 3 6 8 5 3 4 6 5 6 7 7 4 5 4 6 8 8 7 7 7 6 4 3 2 2 2 1 3 6 3 2 3 3 2 1 4 3 4 2 4 4 4 4 3 7 8 7 4 3 2 2 1 1 3 3 5 5 2 2 2 3 4 4 2 1 2 3 4 3 5 5 6 6 6
4 2 0 4 1 1 3 2 2 3 2 4 5 4 4 5 6 6 3 2 3 5 7 8 5 3 5 4 8 10 8 6 7 6 5 4 3 3 3 2 2 1 3 2 2 2 2 2 1 3 2 5 4 4 3 4 6 5 6 5 4 3 2 2 2 2 3 3 4 4 4 4 2 2 1 3 4 3 2 3 3 4 3 4 6 6 6 6
Wind_Direction
37 33 32 31 28 28 22 19 24 20 18 16 21 37 51 59 62 62 51 42 33 25 20 12 7 4 359 355 352 352 2 28 68 70 72 67 45 17 1 355 354 350 355 354 355 352 344 352 353 352 356 359 8 341 303 265 170 162 151 217 227 222 215 181 178 186 197 209 218 231 198 184 169 122 160 60 60 99 89 55 69 46 41 111 133 147 153 150
34 30 28 27 25 24 16 13 12 8 11 5 12 40 44 45 52 55 45 36 28 21 16 9 4 0 357 355 351 353 5 52 73 67 70 68 16 1 355 356 360 352 353 3 9 360 352 339 334 345 1 359 331 336 331 313 197 191 187 232 230 219 228 202 185 182 202 213 226 247 212 195 180 159 163 127 136 133 103 70 80 86 84 109 131 144 149 150
31 28 25 23 22 18 11 13 12 7 12 9 16 43 34 34 40 41 36 29 24 18 12 8 2 357 359 357 350 352 0 75 66 44 51 47 4 356 356 356 357 354 354 4 4 350 342 322 322 339 17 347 308 338 346 312 298 232 212 238 240 265 279 276 261 219 215 195 216 250 223 198 187 164 167 148 165 172 145 141 130 127 138 137 139 143 147 153
28 25 22 20 19 12 9 12 9 4 6 5 10 28 19 30 51 30 25 23 19 15 9 5 0 358 0 358 353 348 359 65 18 314 7 7 353 354 357 354 352 354 354 355 354 347 344 337 332 344 37 330 299 0 334 261 302 262 217 243 268 312 293 286 306 314 300 201 216 246 176 186 189 168 189 149 156 192 181 177 161 157 157 148 148 145 148 156
24 23 21 17 15 7 6 7 3 0 356 350 306 315 321 221 195 357 16 19 12 10 7 2 359 358 358 359 357 342 19 57 311 278 353 343 342 350 353 352 351 350 350 347 346 350 351 355 4 16 43 320 310 359 286 243 306 272 259 281 294 312 300 292 306 353 351 353 359 278 183 187 165 135 216 164 164 193 199 206 180 161 158 156 155 150 150 157
19 18 18 13 10 5 3 3 359 357 349 331 261 254 239 224 221 334 6 9 7 9 4 0 357 356 356 359 358 357 63 107 266 294 335 332 341 346 345 344 348 347 342 336 334 348 358 10 25 17 14 335 293 285 264 270 327 272 285 304 300 298 286 291 293 309 340 335 337 287 261 161 136 131 224 187 194 245 210 190 174 161 159 156 153 153 153 158
14 13 12 9 5 4 1 359 356 353 345 310 242 230 222 218 220 278 335 5 8 5 2 0 356 353 355 1 4 23 64 148 259 319 327 331 337 336 335 335 338 337 339 338 330 338 11 13 15 31 14 320 278 265 273 297 316 252 279 294 294 288 281 280 280 288 310 292 273 221 311 323 165 168 160 210 285 293 223 127 140 152 151 151 150 157 158 158
9 7 6 5 1 1 358 354 352 349 338 284 242 232 226 223 222 257 327 3 1 0 2 359 355 354 358 9 27 34 28 259 286 332 329 325 321 321 322 321 316 320 336 346 335 331 14 352 303 111 51 272 267 291 296 319 313 239 248 281 291 289 290 291 284 289 297 264 239 174 257 284 282 230 161 194 306 306 158 124 136 146 146 153 154 157 158 155
4 1 0 1 358 356 354 352 350 341 313 269 243 233 228 225 229 256 324 349 353 356 356 357 358 359 1 16 56 54 319 257 319 327 318 307 297 301 301 295 288 309 328 340 340 1 44 345 294 311 264 267 272 293 320 338 286 260 279 288 300 296 294 301 295 292 294 245 210 205 229 230 341 337 171 191 113 99 140 132 142 148 150 157 155 156 157 154
360 357 356 356 354 352 350 348 343 331 297 259 239 232 228 226 231 254 309 337 344 346 348 354 359 0 3 22 61 57 280 273 316 298 289 288 288 290 287 279 277 291 297 304 316 320 207 203 293 274 246 269 271 280 306 192 266 314 313 295 287 278 278 289 294 296 290 227 221 220 225 201 96 32 218 230 137 130 119 133 147 150 155 156 156 160 157 155
354 353 353 352 349 347 346 344 338 331 300 255 238 231 225 227 234 257 294 320 332 338 339 344 359 1 6 44 84 148 262 283 286 277 278 283 286 280 277 281 285 282 260 240 265 272 260 265 309 297 243 293 317 288 257 219 308 316 317 315 296 283 282 270 282 294 255 226 243 196 243 202 135 245 188 159 155 142 128 143 159 153 156 157 156 158 156 152
349 348 349 348 346 344 343 339 335 335 307 259 237 229 225 227 233 253 282 304 319 331 332 340 357 0 7 52 133 227 274 268 271 276 273 282 288 282 284 288 289 285 251 220 240 260 259 278 351 326 228 332 339 281 262 294 324 304 317 313 296 309 300 257 263 277 205 214 124 108 300 240 204 217 129 139 162 152 141 150 162 158 157 156 157 156 153 146
344 344 343 343 343 342 340 335 335 333 305 258 234 228 225 226 235 256 274 291 306 322 329 339 347 358 30 29 264 288 285 263 276 280 277 292 291 289 297 295 292 289 252 225 240 260 255 261 258 216 229 72 286 263 305 329 319 291 303 256 284 313 288 243 229 235 197 193 147 142 232 236 206 169 129 146 164 146 142 152 156 159 157 155 157 150 141 144
341 339 338 341 342 341 337 334 335 328 304 257 231 224 224 227 239 255 270 287 300 320 325 338 349 11 58 295 278 301 279 266 281 285 294 296 286 290 296 305 308 292 239 228 241 251 248 253 207 214 264 162 246 311 329 326 333 282 290 296 259 268 268 251 203 177 185 193 160 180 237 232 198 161 150 158 171 154 146 154 155 157 159 157 155 141 132 147
339 335 336 340 340 339 337 335 334 325 304 250 227 221 223 230 245 262 275 285 298 317 317 335 2 33 43 306 285 294 272 266 284 297 310 297 278 288 292 309 317 294 218 231 237 242 226 227 165 156 271 231 92 349 320 316 353 329 275 309 289 220 273 299 267 174 181 210 160 192 233 230 203 169 161 161 172 165 149 153 155 157 161 156 149 133 127 136
336 334 336 338 338 338 336 336 335 328 308 236 219 216 222 237 254 265 273 282 299 309 306 337 55 83 61 293 295 297 266 271 297 309 314 299 276 277 286 308 313 301 308 244 227 233 211 183 154 162 230 260 128 152 324 328 322 347 198 239 258 223 250 294 293 214 180 132 180 207 221 214 212 176 166 165 167 163 153 154 156 159 162 155 145 136 132 127
333 332 334 335 336 337 341 348 352 359 12 209 206 211 222 243 260 265 274 286 295 288 289 69 112 99 126 249 290 302 286 294 305 309 309 301 275 269 278 300 314 325 347 6 207 219 205 166 175 165 146 177 156 140 64 276 255 281 220 233 247 222 218 226 278 267 185 165 195 213 222 247 237 173 163 167 166 161 158 158 158 160 158 150 141 137 138 134
331 331 331 333 335 340 351 4 15 30 58 164 185 202 223 252 268 275 281 284 282 271 310 94 99 82 292 287 302 301 304 307 304 303 301 286 258 262 261 248 343 338 353 27 170 196 265 334 123 338 331 221 186 151 195 223 203 209 212 238 259 236 224 216 244 250 178 189 202 207 217 224 224 176 161 165 170 166 162 158 158 160 155 148 144 142 144 145
325 325 325 331 337 346 2 19 34 44 79 111 149 203 256 278 283 286 276 248 243 229 171 261 36 102 260 283 294 303 310 307 301 296 274 238 244 255 239 216 52 45 58 34 303 203 153 357 22 299 252 219 207 195 212 214 171 179 189 194 221 239 244 230 245 236 179 192 208 208 212 200 192 186 167 167 173 169 160 154 160 162 154 148 149 149 146 147
323 324 322 332 340 353 25 46 57 58 81 90 100 92 327 321 344 324 291 228 212 201 202 207 181 214 267 282 299 315 318 304 288 263 235 234 245 241 202 108 43 51 138 178 230 211 142 173 243 227 225 221 213 210 218 229 228 205 196 212 219 235 252 244 251 243 188 193 214 207 203 192 187 182 175 169 158 164 165 163 165 161 157 157 155 150 146 143
326 327 321 331 347 15 59 74 80 76 82 75 72 91 144 166 76 315 301 290 258 237 227 225 201 237 263 278 303 327 341 306 278 263 241 235 229 276 285 80 49 345 231 180 178 185 138 195 239 231 228 228 215 210 215 231 246 242 234 244 247 238 248 249 243 232 190 202 221 200 190 191 188 182 175 166 160 178 182 176 170 163 165 169 159 147 140 135
327 326 321 334 2 56 88 98 94 92 90 77 87 106 150 167 128 198 249 306 284 267 234 252 249 263 267 273 292 354 55 329 303 287 226 209 321 169 250 146 174 259 246 140 156 219 184 229 244 240 228 223 218 206 207 222 230 235 232 233 247 239 251 265 247 223 189 201 222 195 187 193 193 188 176 174 181 187 184 183 179 169 166 168 165 156 145 142
325 325 322 338 25 96 111 108 102 97 90 87 106 117 132 131 116 179 202 125 295 307 323 251 238 267 286 287 246 135 62 283 291 295 214 180 263 175 172 215 230 260 251 177 210 220 233 238 237 235 199 197 222 204 191 222 230 226 220 221 240 223 213 261 251 207 190 203 229 189 180 183 183 191 199 188 181 166 166 175 183 180 172 169 169 162 152 151
325 324 321 343 64 123 121 112 109 100 85 91 114 124 128 111 99 233 259 75 321 301 274 230 221 227 263 289 237 163 231 218 222 278 199 168 211 116 166 211 223 264 246 213 218 227 252 249 182 178 202 213 233 216 188 209 233 227 219 217 230 218 210 229 241 192 186 208 223 169 158 187 173 185 223 196 141 132 146 157 174 185 160 132 144 146 147 154
323 321 325 2 107 139 128 119 117 108 92 105 118 126 121 94 17 264 309 54 350 303 305 274 253 241 239 253 233 209 272 248 228 244 202 180 188 128 239 221 189 259 256 241 237 243 261 262 115 189 238 227 231 231 208 199 221 236 223 217 221 219 215 215 207 182 182 209 212 175 167 188 176 187 207 195 143 145 152 159 171 174 148 137 145 145 149 157
319 317 334 8 145 145 135 132 128 125 143 136 130 133 123 95 332 248 91 56 352 297 321 324 192 286 276 230 211 190 34 283 245 234 209 199 182 152 281 279 205 259 268 276 256 248 270 254 119 248 258 234 224 233 211 185 212 243 211 210 217 216 215 201 177 198 202 194 192 188 179 157 164 193 200 194 164 156 165 169 169 167 158 160 165 158 159 164
314 315 334 138 154 154 156 151 152 156 173 156 149 151 146 145 279 260 60 43 349 285 305 287 219 13 280 264 196 117 347 298 294 267 187 188 155 96 278 275 284 268 252 330 282 239 243 245 208 245 275 251 221 236 204 173 199 246 182 190 203 207 215 199 172 214 226 133 121 199 163 133 168 191 187 190 178 169 177 176 171 170 167 168 170 167 168 171
316 319 329 161 152 154 156 144 155 167 148 155 158 162 181 215 265 269 79 61 316 290 207 272 278 265 288 307 29 144 276 304 341 308 165 152 166 84 278 253 251 270 256 223 282 281 173 272 299 308 304 277 217 240 227 179 192 247 208 182 190 198 202 184 173 213 211 144 149 199 143 127 183 176 166 185 189 187 188 184 179 174 173 172 171 171 173 175
325 322 326 158 155 150 147 146 151 151 156 157 153 175 197 237 309 50 77 91 283 352 184 284 306 288 330 349 4 340 309 339 186 285 3 128 194 135 259 239 213 272 270 199 243 285 326 293 328 336 274 275 237 235 227 194 210 267 225 175 165 171 167 162 195 187 160 152 171 182 150 128 179 199 170 182 199 201 193 190 185 177 175 176 172 170 172 175
333 325 147 161 169 166 155 149 146 152 165 159 161 181 170 36 42 58 48 260 266 309 261 343 325 319 12 7 333 333 338 283 278 316 353 43 311 5 258 249 144 269 279 217 238 273 288 72 77 221 243 257 267 249 204 201 226 266 237 150 133 132 139 176 225 142 118 172 192 172 130 99 140 207 192 187 203 198 189 186 183 178 175 177 177 171 169 176
341 342 166 172 177 178 166 152 157 169 172 158 161 146 65 33 66 83 44 258 253 316 342 357 325 357 36 30 308 319 341 297 307 355 345 344 3 350 349 11 359 312 325 292 259 272 285 331 136 242 234 240 282 294 160 195 238 264 220 141 124 118 134 97 7 67 130 201 246 174 103 72 151 204 210 211 211 189 190 187 178 176 177 178 180 174 171 176
347 358 173 183 179 175 172 166 164 169 177 158 138 79 68 30 27 99 271 312 312 298 348 320 304 346 4 8 268 288 316 302 311 21 345 347 12 342 6 25 344 352 359 340 333 299 279 271 257 243 202 219 287 347 66 40 330 337 128 163 135 124 137 109 67 37 124 124 290 162 110 54 234 207 218 222 218 193 193 188 175 174 176 177 178 176 173 174
337 320 146 171 173 170 158 162 166 166 173 154 111 53 74 72 348 213 262 326 278 275 311 265 293 320 324 329 296 282 296 283 311 10 334 1 30 340 318 338 347 7 303 323 345 328 306 274 294 355 161 199 61 17 2 2 353 6 84 220 300 160 148 133 123 55 102 100 12 111 130 230 238 235 302 244 238 217 191 174 168 172 174 176 176 172 172 175
330 174 151 151 154 172 172 169 171 161 157 132 84 50 62 57 236 189 261 264 246 300 331 65 313 325 343 317 291 311 338 290 326 9 349 4 25 349 325 319 345 26 229 303 336 329 344 318 324 4 14 67 47 52 59 324 325 347 350 16 334 268 163 139 138 117 116 103 61 41 205 201 208 266 286 270 262 241 185 156 152 163 167 169 170 169 173 176
315 157 149 133 133 166 175 170 165 150 160 100 63 68 112 236 237 167 230 247 254 307 303 31 15 2 352 311 290 336 11 281 336 8 355 4 9 331 331 305 317 9 40 352 319 307 331 281 273 303 342 44 346 258 134 164 320 357 332 10 22 229 172 150 143 133 126 111 95 118 193 203 243 283 303 304 271 175 152 143 145 157 161 162 171 176 176 175
144 143 133 128 131 157 169 166 156 137 147 86 63 67 199 213 214 171 187 198 148 245 322 2 43 46 338 314 316 343 3 257 331 354 330 343 322 279 299 267 276 20 49 25 320 337 342 283 286 347 17 347 252 218 147 173 258 80 84 305 248 181 158 158 87 78 112 114 113 55 94 301 297 283 328 343 97 142 146 154 160 163 163 166 177 182 180 178
139 131 116 130 130 154 172 167 148 118 81 87 87 216 214 204 184 167 157 111 165 135 72 20 342 35 321 309 305 315 339 297 325 359 319 326 322 263 293 289 243 115 304 227 261 303 312 289 296 348 7 309 245 207 222 199 187 114 345 279 246 178 188 191 102 75 87 107 103 43 138 296 311 144 342 354 104 151 161 170 169 165 166 173 181 183 185 183
139 94 331 158 149 159 168 163 137 84 74 77 93 236 198 199 175 159 164 128 150 88 86 116 257 335 189 272 285 291 334 340 333 359 330 329 317 252 316 316 259 150 352 195 178 288 272 298 303 287 247 308 335 43 321 272 196 216 294 311 108 158 269 335 104 136 120 128 153 16 336 255 187 190 333 337 323 162 167 175 173 169 172 177 182 185 187 182
148 60 355 184 172 167 161 157 105 68 70 85 231 230 186 228 236 193 190 143 113 101 101 176 241 6 25 192 259 289 330 349 325 348 1 355 322 272 105 332 275 290 70 154 178 274 269 268 297 286 260 318 6 43 8 330 313 322 338 359 27 158 189 338 80 125 125 144 151 42 353 284 192 236 292 293 290 265 179 176 178 179 179 180 181 183 182 180
167 68 350 193 165 176 166 133 64 67 75 217 211 202 207 242 250 236 224 203 119 122 139 174 178 348 286 246 267 284 313 315 284 323 294 303 317 298 179 165 273 308 346 145 205 278 328 304 277 298 325 10 11 30 26 299 323 348 7 16 354 335 1 37 41 37 104 137 140 112 48 298 263 237 273 281 287 281 209 179 182 183 183 184 182 179 182 184
131 82 291 170 142 178 148 87 49 91 132 224 200 191 243 193 183 296 276 248 139 286 173 144 156 201 222 268 286 258 295 315 284 249 276 288 336 306 254 166 204 311 357 37 309 295 317 319 267 300 342 17 288 300 116 205 256 293 8 15 313 295 8 61 64 7 43 102 140 138 127 285 273 218 257 275 278 272 232 167 175 180 179 182 182 181 184 187
79 111 239 110 148 179 119 76 1 100 117 207 237 243 251 122 121 75 300 321 98 322 1 111 158 207 189 202 258 243 259 280 269 169 262 245 225 239 235 157 141 238 43 317 291 273 258 43 315 274 273 277 273 253 94 136 218 220 249 2 262 289 23 79 77 14 11 38 331 126 97 283 273 222 249 267 281 277 242 158 166 175 172 171 170 173 178 185
105 151 176 103 161 164 89 70 294 27 73 254 279 289 296 58 112 159 255 268 139 150 28 72 183 210 213 193 146 261 243 240 222 228 256 251 244 238 223 83 35 108 133 313 302 287 303 25 354 293 293 314 308 7 97 83 96 177 286 322 15 336 325 55 69 72 52 14 339 44 54 290 291 324 293 294 304 293 193 148 160 162 164 164 166 171 172 176
153 161 131 116 171 150 98 165 208 245 264 293 8 322 296 268 173 167 208 241 219 154 134 153 193 224 248 159 139 225 243 249 243 251 261 228 248 262 240 88 24 19 149 306 309 328 336 351 22 356 350 350 344 350 351 341 32 41 292 305 334 339 359 65 54 59 52 2 339 91 94 264 292 349 15 354 342 27 85 70 157 169 177 177 177 181 173 166
128 103 28 36 116 108 143 178 157 152 180 103 59 231 243 277 218 191 188 208 210 172 164 174 145 145 245 183 127 271 253 233 249 284 330 254 262 306 1 168 179 219 228 216 234 6 36 352 60 88 75 27 338 319 321 322 331 330 297 303 328 357 13 135 123 55 50 346 15 83 162 273 319 18 35 3 358 57 36 339 324 311 209 166 172 166 153 158
134 106 16 338 16 73 184 164 111 125 157 147 178 231 173 193 275 255 160 182 195 169 114 349 123 115 279 240 2 308 275 234 257 313 315 268 271 298 305 237 214 230 261 261 98 87 95 52 61 128 161 180 204 240 280 342 329 311 313 322 339 349 333 179 107 72 122 111 38 13 218 240 1 35 44 319 296 293 298 304 299 293 286 146 141 111 124 158
153 163 168 166 10 4 295 328 116 133 172 167 178 210 174 186 280 320 345 232 190 130 22 1 113 139 207 187 146 277 280 296 328 283 259 247 266 290 293 265 236 271 294 299 130 102 74 5 6 159 210 224 220 249 306 16 306 281 307 317 325 337 350 60 97 103 138 113 74 237 204 148 181 218 211 241 258 266 263 262 267 272 262 158 125 120 173 207
176 208 183 158 172 192 214 232 189 173 173 167 169 179 172 185 208 196 202 65 21 262 190 298 250 198 206 193 143 196 302 334 305 262 267 275 295 322 324 299 277 319 351 14 343 103 98 331 338 1 276 274 260 264 295 349 276 269 284 294 309 334 357 50 93 148 158 129 154 187 157 142 198 237 247 242 240 241 249 253 248 238 139 132 135 170 209 225
163 246 272 33 146 190 198 196 166 162 171 165 156 180 174 190 216 224 184 100 1 282 197 233 260 221 206 211 154 156 228 257 294 275 268 284 298 332 333 306 303 358 30 14 327 104 126 262 1 50 310 307 324 300 290 20 348 315 296 286 285 298 314 70 115 200 139 104 111 135 116 116 236 233 244 261 259 248 268 308 314 150 153 164 173 197 219 230
137 191 242 56 71 167 143 78 128 148 179 180 210 224 183 186 209 228 188 146 166 254 194 222 241 200 170 191 183 210 211 182 208 250 208 246 300 294 282 271 284 340 3 10 324 327 354 315 81 87 338 315 347 47 36 52 38 309 308 327 330 320 340 33 44 12 91 79 46 72 82 47 291 247 248 285 322 232 179 354 291 245 197 175 184 210 225 235
177 343 153 110 102 173 125 81 123 139 177 200 207 222 202 202 203 195 210 190 169 174 184 205 220 165 117 155 207 241 234 185 194 222 194 193 263 243 227 240 228 324 335 348 338 340 12 15 14 59 28 298 324 38 9 18 45 339 332 349 351 356 3 346 332 329 133 122 90 78 95 146 288 321 290 310 2 43 197 254 275 274 239 186 196 218 224 229
187 315 36 120 135 216 142 129 139 146 200 209 195 199 206 217 200 174 193 241 182 183 189 188 187 125 109 182 226 235 227 194 207 225 195 189 244 257 256 244 186 228 305 316 327 334 74 91 346 54 63 279 301 18 0 23 39 354 325 335 320 311 323 312 310 276 221 146 119 131 165 205 271 359 343 318 352 3 262 247 246 258 252 211 213 226 227 229